Hourly Weather Roundup
Issued by NWS Central Illinois

Home | Current Version | Previous Version | Text Only | Print | Product List | Glossary On
Versions: 1 2 3 4 5 6 7 8 9 10 11 12 13 14 15 16 17 18 19 20 21 22 23 24 25 26 27 28 29 30 31 32 33 34 35 36 37 38 39 40 41 42 43 44 45 46 47 48 49 50
440
NZUS43 KILX 231710
HWRILX

Area Weather Roundup
National Weather Service Lincoln IL
1200 PM CDT WED AUG 23 2017

NOTE:  "FAIR" indicates few or no clouds below 12,000 feet, with
       no sigificant weather and/or obstructions to visibility.


CITY           SKY/WX    TMP DP  RH WIND       PRES   REMARKS
Bloomington    MOSUNNY   75  50  41 N9        30.11F
Champaign      SUNNY     77  49  37 N13       30.10S
Danville       MOSUNNY   73  52  46 NW8       30.07S
Decatur        MOSUNNY   75  53  46 NE8       30.10F
Effingham      MOSUNNY   75  57  53 N5        30.11S
Flora          PTSUNNY   75  55  50 N3        30.10S
Galesburg      SUNNY     73  53  50 NW7       30.13F
Jacksonville   SUNNY     73  54  51 NW8       30.13S
Lacon          SUNNY     74  53  48 NW9       30.08F
Lawrenceville    N/A    N/A N/A N/A MISG      30.08F
Litchfield     SUNNY     73  54  50 N9        30.12F
$$


CITY           SKY/WX    TMP DP  RH WIND       PRES   REMARKS
Lincoln        SUNNY     75  55  49 N5        30.11S
Macomb         SUNNY     72  54  53 N7        30.15F
Mattoon        MOSUNNY   74  54  49 NW9       30.09S
Mt Carmel AP   SUNNY     75  54  47 NE6       30.08S
Olney-Noble AP MOSUNNY   73  50  44 NW6       30.10S
Paris AP       MOSUNNY   76  52  42 N8        30.10S
Peoria         SUNNY     76  49  38 VRB7      30.10F
Pontiac        SUNNY     74  57  56 W9G16     30.10S
Rantoul        SUNNY     75  53  45 NW12G17   30.09F
Robinson       SUNNY     74  56  53 N5        30.09F
Springfield    SUNNY     75  54  47 NE8       30.12S
Taylorville    MOSUNNY   72  55  53 NW8       30.12S
$$

...REGIONAL REPORTS...


CITY           SKY/WX    TMP DP  RH WIND       PRES   REMARKS
Chicago O`Hare MOSUNNY   77  48  35 NW15      30.04S
Kankakee       SUNNY     74  54  49 CALM      30.07F
Moline         SUNNY     77  51  40 W13       30.09F
Mount Sterling SUNNY     72  51  47 NW9       30.13S
Mount Vernon     N/A     75  54  47 VRB6      30.10S
Pittsfield     SUNNY     74  55  51 N6        30.14F
Quincy         SUNNY     74  51  44 N6        30.14S
Rockford       MOSUNNY   74  54  49 NW9G17    30.08F
$$


CITY           SKY/WX    TMP DP  RH WIND       PRES   REMARKS
Burlington     SUNNY     75  52  44 NW10G16   30.13S
Cedar Rapids   SUNNY     74  51  44 NW12      30.12S
Des Moines     MOSUNNY   76  48  37 N5        30.15S
Kirksville     SUNNY     76  49  38 N12G17    30.16F
Ottumwa        SUNNY     76  46  34 NW9       30.15S
St Louis       MOSUNNY   76  53  44 VRB6      30.13S
$$


CITY           SKY/WX    TMP DP  RH WIND       PRES   REMARKS
Terre Haute    MOSUNNY   76  52  43 N9        30.08F
Evansville     MOSUNNY   79  57  46 N10       30.07S HX  80
Indianapolis   MOSUNNY   76  50  40 NW13      30.06S
Lafayette      SUNNY     74  54  49 NW8       30.06F
Madison        MOSUNNY   70  53  54 NW13G18   30.06S
Milwaukee      PTSUNNY   73  51  46 NW13      30.03S
$$






USA.gov is the U.S. government's official web portal to all federal, state and local government web resources and services.